This is the latest recevied weather packets stored in our database for station/object IZ5RIE-13. If no packets are shown the sender has not sent any weather packets the latest 10 day(s).
| Time | Temp. | Humidity | Pressure | Rain* | Wind** | Luminosity | Snow |
|---|---|---|---|---|---|---|---|
| 1787923605 | 30° C | 100% | 1016.8 hPa | - | - | - | - |
| 1787922705 | 30° C | 100% | 1016.6 hPa | - | - | - | - |
| 1787921805 | 30° C | 100% | 1016.9 hPa | - | - | - | - |
| 1787920905 | 28.89° C | 100% | 1017.2 hPa | - | - | - | - |
| 1787920004 | 28.33° C | 100% | 1017.4 hPa | - | - | - | - |
| 1787919104 | 28.89° C | 100% | 1017.3 hPa | - | - | - | - |
| 1787918204 | 29.44° C | 100% | 1016.9 hPa | - | - | - | - |
| 1787917304 | 29.44° C | 100% | 1017 hPa | - | - | - | - |
| 1787916404 | 29.44° C | 100% | 1017.1 hPa | - | - | - | - |
| 1787915504 | 30° C | 100% | 1017.1 hPa | - | - | - | - |
| 1787914604 | 30° C | 100% | 1017.1 hPa | - | - | - | - |
| 1787913703 | 28.89° C | 100% | 1017.5 hPa | - | - | - | - |
| 1787912803 | 28.89° C | 100% | 1017.6 hPa | - | - | - | - |
| 1787911903 | 29.44° C | 100% | 1017.1 hPa | - | - | - | - |
| 1787911003 | 30° C | 100% | 1017 hPa | - | - | - | - |
| 1787910103 | 30.56° C | 100% | 1017.2 hPa | - | - | - | - |
| 1787909203 | 31.67° C | 100% | 1016.9 hPa | - | - | - | - |
| 1787908302 | 31.67° C | 100% | 1016.9 hPa | - | - | - | - |
| 1787907402 | 31.67° C | 100% | 1016.9 hPa | - | - | - | - |
| 1787906501 | 31.11° C | 100% | 1016.9 hPa | - | - | - | - |
| 1787905601 | 30.56° C | 100% | 1016.9 hPa | - | - | - | - |
| 1787904701 | 29.44° C | 100% | 1017.1 hPa | - | - | - | - |
| 1787904667 | 29.44° C | 100% | 1017.2 hPa | - | - | - | - |
| 1787903766 | 29.44° C | 100% | 1017.3 hPa | - | - | - | - |
| 1787903735 | 29.44° C | 100% | 1017.2 hPa | - | - | - | - |
* Rain since midnight (hover to see other rain measurements)
** Current wind speed in m/s (hover to see current wind gust speed)